| time (UTC) | temp F | wind direction | speed knots | gust knots | rain 1hr in | rain 24hr in | rain mn in | humidity % | barometer mb |
| 20260507003804 | 43 | 308 | 0.9 | 1.7 | 0.00 | 0.00 | 0.00 | 84 | 1012.9 |
| 20260507003304 | 43 | 308 | 0.9 | 1.7 | 0.00 | 0.00 | 0.00 | 84 | 1012.9 |
| 20260507001804 | 43 | 310 | 0.9 | 2.6 | 0.00 | 0.00 | 0.00 | 84 | 1012.8 |
| 20260507000803 | 43 | 302 | 0.9 | 2.6 | 0.00 | 0.00 | 0.00 | 84 | 1012.8 |
| 20260507000306 | 43 | 296 | 0.9 | 2.6 | 0.00 | 0.00 | 0.00 | 84 | 1012.8 |
| 20260506234803 | 44 | 311 | 0.9 | 2.6 | 0.00 | 0.00 | 0.00 | 83 | 1012.9 |
| 20260506231304 | 44 | 329 | 0.0 | 1.7 | 0.00 | 0.00 | 0.00 | 82 | 1012.8 |
| 20260506230804 | 44 | 316 | 0.9 | 1.7 | 0.00 | 0.00 | 0.00 | 82 | 1012.8 |
| 20260506223304 | 45 | 32 | 0.0 | 2.6 | 0.00 | 0.00 | 0.00 | 82 | 1012.7 |
| 20260506214804 | 46 | 207 | 0.9 | 2.6 | 0.00 | 0.00 | 0.00 | 82 | 1012.5 |
| 20260506214303 | 46 | 208 | 0.9 | 2.6 | 0.00 | 0.00 | 0.00 | 82 | 1012.5 |
| 20260506213303 | 46 | 185 | 0.9 | 2.6 | 0.00 | 0.00 | 0.00 | 82 | 1012.4 |
| 20260506211803 | 46 | 71 | 0.9 | 1.7 | 0.00 | 0.00 | 0.00 | 81 | 1012.3 |
| 20260506210803 | 46 | 67 | 0.9 | 1.7 | 0.00 | 0.00 | 0.00 | 81 | 1012.4 |
| 20260506210303 | 47 | 287 | 0.9 | 2.6 | 0.00 | 0.00 | 0.00 | 81 | 1012.3 |
| 20260506204304 | 47 | 269 | 0.9 | 1.7 | 0.00 | 0.00 | 0.00 | 80 | 1012.3 |
| 20260506203804 | 47 | 258 | 0.9 | 2.6 | 0.00 | 0.00 | 0.00 | 79 | 1012.3 |
| 20260506203303 | 47 | 263 | 0.9 | 2.6 | 0.00 | 0.00 | 0.00 | 79 | 1012.3 |
| 20260506201803 | 48 | 6 | 0.9 | 2.6 | 0.00 | 0.00 | 0.00 | 78 | 1012.2 |
| 20260506200803 | 48 | 42 | 0.9 | 2.6 | 0.00 | 0.00 | 0.00 | 78 | 1012.1 |
| 20260506194804 | 49 | 228 | 0.9 | 2.6 | 0.00 | 0.00 | 0.00 | 77 | 1011.9 |
| 20260506193304 | 50 | 101 | 0.9 | 2.6 | 0.00 | 0.00 | 0.00 | 75 | 1011.9 |
| 20260506191303 | 51 | 88 | 1.7 | 5.2 | 0.00 | 0.00 | 0.00 | 73 | 1011.7 |
| 20260506190804 | 51 | 33 | 2.6 | 5.2 | 0.00 | 0.00 | 0.00 | 73 | 1011.6 |
| 20260506190304 | 51 | 85 | 1.7 | 7.0 | 0.00 | 0.00 | 0.00 | 72 | 1011.5 |
| 20260506183804 | 52 | 70 | 0.9 | 6.1 | 0.00 | 0.00 | 0.00 | 70 | 1011.1 |
| 20260506181304 | 53 | 117 | 2.6 | 7.0 | 0.00 | 0.00 | 0.00 | 67 | 1010.9 |
| 20260506180803 | 53 | 62 | 2.6 | 7.0 | 0.00 | 0.00 | 0.00 | 66 | 1010.8 |
| 20260506174803 | 53 | 188 | 1.7 | 7.0 | 0.00 | 0.00 | 0.00 | 67 | 1010.6 |
| 20260506171804 | 54 | 81 | 2.6 | 7.0 | 0.00 | 0.00 | 0.00 | 65 | 1010.3 |
| 20260506170304 | 55 | 95 | 2.6 | 10.4 | 0.00 | 0.00 | 0.00 | 65 | 1010.2 |
| 20260506163803 | 57 | 79 | 2.6 | 10.4 | 0.00 | 0.00 | 0.00 | 62 | 1010.1 |
| 20260506163304 | 57 | 80 | 5.2 | 10.4 | 0.00 | 0.00 | 0.00 | 60 | 1010.1 |
| 20260506154806 | 56 | 144 | 2.6 | 10.4 | 0.00 | 0.00 | 0.00 | 67 | 1010.0 |
| 20260506154304 | 56 | 56 | 5.2 | 11.3 | 0.00 | 0.00 | 0.00 | 66 | 1010.0 |
| 20260506153804 | 56 | 61 | 4.3 | 11.3 | 0.00 | 0.00 | 0.00 | 67 | 1010.0 |
| 20260506153303 | 56 | 107 | 2.6 | 10.4 | 0.00 | 0.00 | 0.00 | 68 | 1010.0 |
| 20260506151803 | 57 | 193 | 2.6 | 7.8 | 0.00 | 0.00 | 0.00 | 68 | 1009.9 |
| 20260506151304 | 57 | 127 | 2.6 | 7.8 | 0.00 | 0.00 | 0.00 | 67 | 1009.9 |
| 20260506150804 | 57 | 117 | 2.6 | 7.8 | 0.00 | 0.00 | 0.00 | 68 | 1010.0 |
| 20260506150305 | 57 | 109 | 4.3 | 7.8 | 0.00 | 0.00 | 0.00 | 68 | 1009.9 |
| 20260506144803 | 57 | 103 | 4.3 | 10.4 | 0.00 | 0.00 | 0.00 | 67 | 1009.8 |
| 20260506144303 | 57 | 87 | 2.6 | 7.8 | 0.00 | 0.00 | 0.00 | 68 | 1009.7 |
| 20260506143814 | 57 | 70 | 4.3 | 10.4 | 0.00 | 0.00 | 0.00 | 68 | 1009.8 |
| 20260506141804 | 57 | 105 | 2.6 | 10.4 | 0.00 | 0.00 | 0.00 | 68 | 1009.7 |
| 20260506141303 | 57 | 146 | 2.6 | 10.4 | 0.00 | 0.00 | 0.00 | 67 | 1009.7 |
| 20260506140304 | 57 | 229 | 2.6 | 7.8 | 0.00 | 0.00 | 0.00 | 65 | 1009.7 |
| 20260506134303 | 57 | 176 | 3.5 | 10.4 | 0.00 | 0.00 | 0.00 | 63 | 1009.6 |
| 20260506133304 | 57 | 218 | 2.6 | 10.4 | 0.00 | 0.00 | 0.00 | 64 | 1009.7 |
| 20260506130303 | 57 | 86 | 2.6 | 6.1 | 0.00 | 0.00 | 0.00 | 62 | 1009.6 |
| 20260506124804 | 56 | 72 | 1.7 | 7.8 | 0.00 | 0.00 | 0.00 | 59 | 1009.6 |
| 20260506124304 | 56 | 60 | 4.3 | 7.8 | 0.00 | 0.00 | 0.00 | 56 | 1009.6 |
| 20260506123804 | 56 | 71 | 2.6 | 8.7 | 0.00 | 0.00 | 0.00 | 55 | 1009.6 |
| 20260506123304 | 56 | 51 | 3.5 | 8.7 | 0.00 | 0.00 | 0.00 | 54 | 1009.6 |
| 20260506121803 | 56 | 69 | 1.7 | 10.4 | 0.00 | 0.00 | 0.00 | 54 | 1009.5 |
| 20260506120803 | 56 | 68 | 5.2 | 12.2 | 0.00 | 0.00 | 0.00 | 52 | 1009.5 |
| 20260506114804 | 56 | 83 | 4.3 | 10.4 | 0.00 | 0.00 | 0.00 | 52 | 1009.4 |
| 20260506113804 | 56 | 74 | 2.6 | 13.9 | 0.00 | 0.00 | 0.00 | 53 | 1009.4 |
| 20260506113303 | 56 | 59 | 5.2 | 13.9 | 0.00 | 0.00 | 0.00 | 53 | 1009.4 |
| 20260506110303 | 56 | 89 | 7.0 | 13.0 | 0.00 | 0.00 | 0.00 | 54 | 1009.3 |
| 20260506104803 | 55 | 79 | 4.3 | 11.3 | 0.00 | 0.00 | 0.00 | 58 | 1009.2 |
| 20260506103804 | 55 | 58 | 4.3 | 12.2 | 0.00 | 0.00 | 0.00 | 58 | 1009.3 |
| 20260506101304 | 54 | 72 | 2.6 | 10.4 | 0.00 | 0.00 | 0.00 | 62 | 1009.2 |
| 20260506094803 | 53 | 108 | 3.5 | 7.8 | 0.00 | 0.00 | 0.00 | 65 | 1009.2 |
| 20260506093804 | 53 | 88 | 3.5 | 7.8 | 0.00 | 0.00 | 0.00 | 65 | 1009.1 |
| 20260506093303 | 53 | 69 | 2.6 | 7.8 | 0.00 | 0.00 | 0.00 | 63 | 1009.1 |
| 20260506091804 | 54 | 79 | 2.6 | 7.0 | 0.00 | 0.00 | 0.00 | 64 | 1009.0 |
| 20260506091304 | 53 | 79 | 3.5 | 7.0 | 0.00 | 0.00 | 0.00 | 65 | 1009.0 |
| 20260506090303 | 53 | 80 | 4.3 | 10.4 | 0.00 | 0.00 | 0.00 | 65 | 1009.0 |
| 20260506084303 | 53 | 66 | 3.5 | 11.3 | 0.00 | 0.00 | 0.00 | 65 | 1008.9 |
| 20260506081804 | 53 | 66 | 7.0 | 13.0 | 0.00 | 0.00 | 0.00 | 64 | 1008.9 |
| 20260506081304 | 53 | 78 | 2.6 | 10.4 | 0.00 | 0.00 | 0.00 | 65 | 1008.8 |
| 20260506080814 | 53 | 70 | 4.3 | 10.4 | 0.00 | 0.00 | 0.00 | 64 | 1008.8 |
| 20260506071803 | 53 | 56 | 2.6 | 10.4 | 0.00 | 0.00 | 0.00 | 75 | 1008.6 |
| 20260506071304 | 52 | 81 | 2.6 | 10.4 | 0.00 | 0.00 | 0.00 | 77 | 1008.6 |
| 20260506070803 | 52 | 62 | 5.2 | 10.4 | 0.00 | 0.00 | 0.00 | 77 | 1008.6 |
| 20260506070303 | 52 | 67 | 1.7 | 6.1 | 0.00 | 0.00 | 0.00 | 79 | 1008.5 |
| 20260506061804 | 51 | 52 | 0.9 | 2.6 | 0.00 | 0.00 | 0.00 | 84 | 1008.5 |
| 20260506061303 | 50 | 145 | 0.9 | 5.2 | 0.00 | 0.00 | 0.00 | 85 | 1008.5 |
| 20260506060305 | 49 | 104 | 0.9 | 2.6 | 0.00 | 0.00 | 0.00 | 87 | 1008.5 |
| 20260506050315 | 47 | 96 | 0.9 | 2.6 | 0.00 | 0.00 | 0.00 | 88 | 1008.4 |
| 20260506044303 | 47 | 221 | 1.7 | 2.6 | 0.00 | 0.00 | 0.00 | 87 | 1008.4 |
| 20260506043803 | 47 | 46 | 0.9 | 2.6 | 0.00 | 0.00 | 0.00 | 87 | 1008.4 |
| 20260506041803 | 47 | 136 | 0.9 | 2.6 | 0.00 | 0.00 | 0.00 | 87 | 1008.4 |
| 20260506041303 | 47 | 184 | 0.9 | 2.6 | 0.00 | 0.00 | 0.00 | 87 | 1008.4 |
| 20260506040804 | 47 | 109 | 0.9 | 2.6 | 0.00 | 0.00 | 0.00 | 87 | 1008.4 |
| 20260506040303 | 47 | 256 | 0.9 | 1.7 | 0.00 | 0.00 | 0.00 | 86 | 1008.4 |
| 20260506034803 | 47 | 107 | 0.9 | 2.6 | 0.00 | 0.00 | 0.00 | 86 | 1008.4 |
| 20260506033803 | 47 | 262 | 0.9 | 2.6 | 0.00 | 0.00 | 0.00 | 86 | 1008.4 |
| 20260506030303 | 48 | 359 | 0.9 | 2.6 | 0.00 | 0.00 | 0.00 | 85 | 1008.7 |
| 20260506024804 | 48 | 352 | 0.9 | 2.6 | 0.00 | 0.00 | 0.00 | 84 | 1008.7 |
| 20260506024303 | 48 | 330 | 0.9 | 2.6 | 0.00 | 0.00 | 0.00 | 84 | 1008.8 |
| 20260506021804 | 49 | 57 | 0.9 | 2.6 | 0.00 | 0.00 | 0.00 | 84 | 1008.8 |
| 20260506014304 | 49 | 180 | 0.9 | 2.6 | 0.00 | 0.00 | 0.00 | 83 | 1009.0 |
| 20260506013804 | 49 | 357 | 0.9 | 2.6 | 0.00 | 0.00 | 0.00 | 83 | 1009.0 |
| 20260506010803 | 50 | 88 | 0.9 | 4.3 | 0.00 | 0.00 | 0.00 | 82 | 1009.2 |
| 20260506010304 | 50 | 59 | 1.7 | 4.3 | 0.00 | 0.00 | 0.00 | 82 | 1009.2 |
| 20260506004804 | 50 | 65 | 0.9 | 2.6 | 0.00 | 0.00 | 0.00 | 82 | 1009.3 |
| 20260506004303 | 50 | 85 | 0.9 | 2.6 | 0.00 | 0.00 | 0.00 | 82 | 1009.3 |